{"data":{"norad_id":57794,"epoch":"2026-05-25T02:44:25.723968Z","epoch_age_seconds":64768,"freshness":"FRESH","line1":"1 57794U 23135C   26145.11418662  .00000349  00000+0  22310-3 0  9999","line2":"2 57794  49.9725 249.6142 0014387 179.2207 180.8730 14.23145189141347","mean_motion":14.23145189,"eccentricity":0.0014387,"inclination_deg":49.9725,"raan_deg":249.6142,"arg_perigee_deg":179.2207,"mean_anomaly_deg":180.873,"bstar":0.0002231,"rev_number":14134,"period_min":101.18433531099,"perigee_km":804.38722265673,"apogee_km":825.08399430036,"semimajor_km":7192.8726084785,"source":"CELESTRAK","updated_at":"2026-05-25T13:38:00.271195Z"}}